Location: Unspecified
(54.1780°N, 0.0000°E)
Time: 19:26:09
(UTC+00:00)

Transit 2A - Pass Details

Date: 26 June 2019
Orbit: 597 x 962 km, 66.7° (Epoch: 19 August)

Event Time Altitude Azimuth Distance (km) Brightness Sun altitude
Rises 06:50:05 0° 317° (NW) 3,528 9.1 25.6°
Reaches altitude 10° 06:52:44 10° 320° (NW) 2,537 8.4 26.0°
Maximum altitude 06:58:34 66° 43° (NE) 887 7.1 26.8°
Drops below altitude 10° 07:03:48 10° 126° (SE) 2,277 9.4 27.6°
Sets 07:06:04 0° 129° (SE) 3,142 9.9 27.9°
